Simultaneous Nadir Overpasses (SNOs) Predictions

Prediction of SNOs between AURA and NPP Satellite Orbit:

Table of predicted SNOs for the next 14.0 days since TLE Epoch: 7/23/2022
Index Date (AURA) Time (AURA) Lat,Lon (AURA) SZA (AURA ) Date (NPP) Time (NPP) Lat,Lon (NPP) SZA (NPP ) Distance(km) Time Diff (sec)
1 07/23/2022 02:52:31 -79.19,-148.30 106.63 07/23/2022 02:51:24 -79.18,-148.43 106.56 2.78 67
2 07/23/2022 03:41:48 79.54, 21.64 72.87 07/23/2022 03:41:58 79.54, 21.67 72.86 0.54 10
3 07/25/2022 19:08:57 -79.39, -31.10 106.37 07/25/2022 19:08:15 -79.40, -30.96 106.37 3.03 42
4 07/25/2022 19:58:18 79.58, 137.83 73.36 07/25/2022 19:58:54 79.58, 137.83 73.34 0.28 36
5 07/28/2022 11:25:27 -79.42, 84.97 105.82 07/28/2022 11:25:12 -79.42, 84.92 105.80 1.15 15
6 07/28/2022 12:14:45 79.72,-105.30 73.75 07/28/2022 12:15:47 79.72,-105.18 73.68 2.58 62
7 07/31/2022 02:52:32 79.30, 32.41 74.98 07/31/2022 02:51:26 79.31, 32.50 75.01 1.97 66
8 07/31/2022 03:41:55 -79.47,-158.84 105.26 07/31/2022 03:42:07 -79.46,-158.96 105.25 2.54 12
9 08/02/2022 19:09:02 79.29, 148.20 75.66 08/02/2022 19:08:24 79.28, 148.06 75.71 3.09 38
10 08/02/2022 19:58:22 -79.57, -42.25 104.76 08/02/2022 19:59:01 -79.57, -42.30 104.78 1.19 39
11 08/05/2022 11:25:27 79.45, -94.85 76.11 08/05/2022 11:25:16 79.45, -94.80 76.11 1.01 11



Historial Predications of SNOs between AURA and NPP
